QPF
0.09 0.06 0.06 0.06 0.07 0.08 0.08 0.11 0.11 0.10 0.10 0.08 0.06 0.06 0.04 0.04 0.04 0.03 0.02 0.02 0.01 0.01 0.01 0.01 0.01 0.01 0.01 0.01 0.01 0.02 0.03 0.05 0.09 0.12 0.10 0.08 0.07 0.08 0.06 0.06 0.06 0.06 0.05
0.05 0.04 0.04 0.04 0.03 0.03 0.04 0.05 0.05 0.04 0.04 0.03 0.02 0.01 0.01 0.01 0.01 0.01 0.01 0.01 0.01 0.01 0.00 0.00 0.00 0.00 0.00 0.00 0.00 0.01 0.02 0.03 0.06 0.09 0.11 0.09 0.08 0.06 0.05 0.05 0.05 0.05 0.05
0.04 0.02 0.02 0.02 0.01 0.01 0.01 0.02 0.02 0.02 0.01 0.01 0.00 0.00 0.00 0.00 0.00 0.00 0.00 0.00 0.00 0.00 0.00 0.00 0.00 0.00 0.00 0.00 0.00 0.01 0.02 0.03 0.06 0.09 0.12 0.11 0.08 0.07 0.06 0.05 0.05 0.06 0.07
0.02 0.01 0.01 0.01 0.00 0.00 0.00 0.00 0.00 0.00 0.00 0.00 0.00 0.00 0.00 0.00 0.00 0.00 0.00 0.00 0.00 0.00 0.00 0.00 0.00 0.00 0.00 0.00 0.00 0.00 0.01 0.01 0.03 0.05 0.08 0.10 0.09 0.09 0.09 0.07 0.06 0.07 0.08
0.01 0.01 0.00 0.00 0.00 0.00 0.00 0.00 0.00 0.00 0.00 0.00 0.00 0.00 0.00 0.00 0.00 0.00 0.00 0.00 0.00 0.00 0.00 0.00 0.00 0.00 0.00 0.00 0.00 0.00 0.01 0.02 0.02 0.04 0.05 0.07 0.08 0.08 0.08 0.07 0.07 0.06 0.07
0.01 0.00 0.00 0.00 0.00 0.00 0.00 0.00 0.00 0.00 0.00 0.00 0.00 0.00 0.00 0.00 0.00 0.00 0.00 0.00 0.00 0.00 0.00 0.00 0.00 0.00 0.00 0.00 0.00 0.00 0.00 0.01 0.03 0.04 0.06 0.08 0.10 0.08 0.08 0.07 0.08 0.08 0.07
0.00 0.00 0.00 0.00 0.00 0.00 0.00 0.00 0.00 0.00 0.00 0.00 0.00 0.00 0.00 0.00 0.00 0.00 0.00 0.00 0.00 0.00 0.00 0.00 0.00 0.00 0.00 0.00 0.00 0.00 0.00 0.00 0.01 0.02 0.05 0.07 0.08 0.07 0.07 0.08 0.08 0.08 0.08
0.00 0.00 0.00 0.00 0.00 0.00 0.00 0.00 0.00 0.00 0.00 0.00 0.00 0.00 0.00 0.00 0.00 0.00 0.00 0.00 0.00 0.00 0.00 0.00 0.00 0.00 0.00 0.00 0.00 0.00 0.00 0.00 0.01 0.01 0.01 0.04 0.06 0.06 0.07 0.07 0.09 0.09 0.08
0.00 0.00 0.00 0.00 0.00 0.00 0.00 0.00 0.00 0.00 0.00 0.00 0.00 0.00 0.00 0.00 0.00 0.00 0.00 0.00 0.00 0.00 0.00 0.00 0.00 0.00 0.00 0.00 0.00 0.00 0.00 0.00 0.00 0.00 0.01 0.01 0.02 0.04 0.05 0.07 0.08 0.10 0.10
0.00 0.00 0.00 0.00 0.00 0.00 0.00 0.00 0.00 0.00 0.00 0.00 0.00 0.00 0.00 0.00 0.00 0.00 0.00 0.00 0.00 0.00 0.00 0.00 0.00 0.00 0.00 0.00 0.00 0.00 0.00 0.00 0.00 0.00 0.00 0.01 0.01 0.02 0.04 0.06 0.07 0.09 0.10
0.00 0.00 0.00 0.00 0.00 0.00 0.00 0.00 0.00 0.00 0.00 0.00 0.00 0.00 0.00 0.00 0.00 0.00 0.00 0.00 0.00 0.00 0.00 0.00 0.00 0.00 0.00 0.00 0.00 0.00 0.00 0.00 0.00 0.00 0.00 0.00 0.01 0.01 0.02 0.04 0.06 0.08 0.10
0.00 0.00 0.00 0.00 0.00 0.00 0.00 0.00 0.00 0.00 0.00 0.00 0.00 0.00 0.00 0.00 0.00 0.00 0.00 0.00 0.00 0.00 0.00 0.00 0.00 0.00 0.00 0.00 0.00 0.00 0.00 0.00 0.00 0.00 0.00 0.00 0.01 0.01 0.02 0.03 0.05 0.08 0.10
0.00 0.00 0.00 0.00 0.00 0.00 0.00 0.00 0.00 0.00 0.00 0.00 0.00 0.00 0.00 0.00 0.00 0.00 0.00 0.00 0.00 0.00 0.00 0.00 0.00 0.00 0.00 0.00 0.00 0.00 0.00 0.00 0.00 0.00 0.00 0.01 0.01 0.01 0.01 0.02 0.04 0.06 0.09
0.00 0.00 0.00 0.00 0.00 0.00 0.00 0.00 0.00 0.00 0.00 0.00 0.00 0.00 0.00 0.00 0.00 0.00 0.00 0.00 0.00 0.00 0.00 0.00 0.00 0.00 0.00 0.00 0.00 0.00 0.00 0.00 0.00 0.00 0.01 0.01 0.01 0.01 0.01 0.02 0.03 0.05 0.08
0.00 0.00 0.00 0.00 0.00 0.00 0.00 0.00 0.00 0.00 0.00 0.00 0.00 0.00 0.00 0.00 0.00 0.00 0.00 0.00 0.00 0.00 0.00 0.00 0.00 0.00 0.00 0.00 0.00 0.00 0.00 0.00 0.00 0.00 0.00 0.01 0.01 0.01 0.01 0.02 0.02 0.04 0.07
0.00 0.00 0.00 0.00 0.00 0.00 0.00 0.00 0.00 0.00 0.00 0.00 0.00 0.00 0.00 0.00 0.00 0.00 0.00 0.00 0.00 0.00 0.00 0.00 0.00 0.00 0.00 0.00 0.00 0.00 0.00 0.00 0.00 0.00 0.00 0.01 0.02 0.02 0.01 0.01 0.01 0.02 0.04
0.00 0.00 0.00 0.00 0.00 0.00 0.00 0.00 0.00 0.00 0.00 0.00 0.00 0.00 0.00 0.00 0.00 0.00 0.00 0.00 0.00 0.00 0.00 0.00 0.00 0.00 0.00 0.00 0.00 0.00 0.00 0.00 0.00 0.00 0.00 0.00 0.01 0.02 0.03 0.02 0.02 0.01 0.03
0.00 0.00 0.00 0.00 0.00 0.00 0.00 0.00 0.00 0.00 0.00 0.00 0.00 0.00 0.00 0.00 0.00 0.00 0.00 0.00 0.00 0.00 0.00 0.00 0.00 0.00 0.00 0.01 0.00 0.00 0.00 0.00 0.00 0.00 0.00 0.01 0.01 0.01 0.02 0.03 0.04 0.02 0.02
0.00 0.00 0.00 0.00 0.00 0.00 0.00 0.00 0.00 0.00 0.00 0.00 0.00 0.00 0.00 0.00 0.00 0.00 0.00 0.00 0.00 0.00 0.00 0.00 0.00 0.00 0.00 0.01 0.01 0.01 0.00 0.01 0.01 0.01 0.01 0.01 0.01 0.02 0.02 0.02 0.03 0.04 0.03
0.00 0.00 0.00 0.00 0.00 0.00 0.00 0.00 0.00 0.00 0.00 0.00 0.00 0.00 0.00 0.00 0.00 0.00 0.00 0.00 0.00 0.00 0.00 0.00 0.00 0.00 0.00 0.01 0.02 0.02 0.01 0.01 0.01 0.01 0.01 0.02 0.02 0.03 0.03 0.03 0.03 0.03 0.04
0.00 0.00 0.00 0.00 0.00 0.00 0.00 0.00 0.00 0.00 0.00 0.00 0.00 0.00 0.00 0.00 0.00 0.00 0.00 0.00 0.00 0.00 0.00 0.00 0.00 0.00 0.00 0.00 0.01 0.02 0.01 0.01 0.01 0.02 0.02 0.01 0.02 0.04 0.04 0.04 0.03 0.03 0.04
0.00 0.00 0.00 0.00 0.00 0.00 0.00 0.00 0.00 0.00 0.00 0.00 0.00 0.00 0.00 0.00 0.00 0.00 0.00 0.00 0.00 0.00 0.00 0.00 0.00 0.00 0.00 0.00 0.01 0.01 0.01 0.01 0.02 0.03 0.02 0.02 0.03 0.04 0.05 0.04 0.04 0.05 0.05
0.00 0.00 0.00 0.00 0.00 0.00 0.00 0.00 0.00 0.00 0.00 0.00 0.00 0.00 0.00 0.00 0.00 0.00 0.00 0.00 0.00 0.00 0.00 0.00 0.00 0.00 0.00 0.00 0.00 0.01 0.01 0.01 0.01 0.03 0.03 0.03 0.03 0.05 0.06 0.06 0.05 0.06 0.06
0.00 0.00 0.00 0.00 0.00 0.00 0.00 0.00 0.00 0.00 0.00 0.00 0.00 0.00 0.00 0.00 0.00 0.00 0.00 0.00 0.00 0.00 0.00 0.00 0.00 0.01 0.01 0.00 0.00 0.00 0.01 0.01 0.01 0.03 0.04 0.05 0.05 0.06 0.07 0.07 0.07 0.05 0.06
0.00 0.00 0.00 0.00 0.00 0.00 0.00 0.00 0.00 0.00 0.00 0.00 0.00 0.00 0.00 0.00 0.00 0.00 0.00 0.00 0.00 0.00 0.00 0.00 0.01 0.01 0.01 0.01 0.00 0.00 0.01 0.01 0.01 0.02 0.04 0.04 0.06 0.07 0.08 0.07 0.08 0.06 0.05
0.00 0.00 0.00 0.00 0.00 0.00 0.00 0.00 0.00 0.00 0.00 0.00 0.00 0.00 0.00 0.00 0.00 0.00 0.00 0.00 0.00 0.00 0.00 0.01 0.01 0.01 0.01 0.00 0.01 0.01 0.01 0.02 0.02 0.03 0.04 0.05 0.07 0.08 0.08 0.06 0.06 0.06 0.04
MSLP
1013.76 1013.87 1013.99 1014.07 1014.10 1014.08 1014.02 1013.95 1013.90 1013.90 1013.94 1014.02 1014.13 1014.24 1014.32 1014.38 1014.40 1014.40 1014.39 1014.41 1014.45 1014.53 1014.65 1014.79 1014.95 1015.09 1015.22 1015.31 1015.36 1015.36 1015.31 1015.20 1015.04 1014.82 1014.53 1014.17 1013.75 1013.28 1012.80 1012.33 1011.93 1011.63 1011.45
1013.98 1014.06 1014.12 1014.15 1014.11 1014.01 1013.90 1013.80 1013.76 1013.79 1013.89 1014.05 1014.24 1014.42 1014.54 1014.61 1014.62 1014.57 1014.51 1014.46 1014.45 1014.49 1014.58 1014.72 1014.87 1015.03 1015.15 1015.24 1015.27 1015.26 1015.18 1015.06 1014.88 1014.64 1014.33 1013.95 1013.50 1012.99 1012.45 1011.91 1011.41 1011.01 1010.74
1014.02 1014.08 1014.13 1014.12 1014.03 1013.89 1013.74 1013.63 1013.59 1013.66 1013.82 1014.05 1014.31 1014.54 1014.72 1014.80 1014.79 1014.71 1014.60 1014.49 1014.42 1014.42 1014.48 1014.59 1014.73 1014.87 1014.99 1015.05 1015.07 1015.03 1014.94 1014.80 1014.62 1014.39 1014.10 1013.74 1013.30 1012.79 1012.22 1011.63 1011.06 1010.58 1010.22
1013.90 1013.99 1014.04 1014.02 1013.92 1013.76 1013.59 1013.47 1013.44 1013.53 1013.73 1014.01 1014.32 1014.59 1014.79 1014.89 1014.87 1014.77 1014.62 1014.47 1014.36 1014.32 1014.34 1014.43 1014.54 1014.65 1014.73 1014.77 1014.76 1014.70 1014.60 1014.47 1014.31 1014.11 1013.87 1013.55 1013.15 1012.67 1012.10 1011.50 1010.89 1010.33 1009.89
1013.70 1013.82 1013.90 1013.91 1013.82 1013.67 1013.49 1013.36 1013.33 1013.42 1013.63 1013.93 1014.26 1014.55 1014.76 1014.86 1014.84 1014.73 1014.57 1014.39 1014.26 1014.18 1014.18 1014.23 1014.31 1014.38 1014.43 1014.44 1014.40 1014.32 1014.21 1014.10 1013.97 1013.82 1013.64 1013.39 1013.05 1012.61 1012.08 1011.47 1010.84 1010.23 1009.71
1013.47 1013.65 1013.80 1013.85 1013.80 1013.66 1013.49 1013.35 1013.30 1013.37 1013.56 1013.83 1014.14 1014.42 1014.63 1014.73 1014.71 1014.60 1014.43 1014.25 1014.11 1014.02 1013.99 1014.01 1014.06 1014.10 1014.11 1014.08 1014.01 1013.91 1013.81 1013.71 1013.62 1013.52 1013.40 1013.22 1012.96 1012.58 1012.09 1011.51 1010.87 1010.23 1009.66
1013.30 1013.55 1013.77 1013.88 1013.87 1013.76 1013.60 1013.45 1013.36 1013.38 1013.52 1013.74 1014.00 1014.24 1014.43 1014.51 1014.49 1014.39 1014.24 1014.07 1013.93 1013.84 1013.80 1013.80 1013.81 1013.81 1013.78 1013.71 1013.61 1013.50 1013.39 1013.30 1013.24 1013.20 1013.13 1013.02 1012.82 1012.51 1012.08 1011.53 1010.91 1010.27 1009.66
1013.24 1013.55 1013.84 1014.02 1014.06 1013.98 1013.82 1013.64 1013.51 1013.47 1013.53 1013.67 1013.86 1014.05 1014.19 1014.26 1014.24 1014.15 1014.02 1013.87 1013.75 1013.66 1013.61 1013.59 1013.57 1013.53 1013.45 1013.35 1013.21 1013.08 1012.96 1012.88 1012.84 1012.82 1012.81 1012.75 1012.62 1012.37 1011.99 1011.50 1010.91 1010.29 1009.68
1013.29 1013.67 1014.02 1014.25 1014.33 1014.28 1014.12 1013.92 1013.74 1013.62 1013.60 1013.65 1013.76 1013.88 1013.98 1014.02 1013.99 1013.92 1013.80 1013.68 1013.57 1013.49 1013.42 1013.38 1013.32 1013.24 1013.12 1012.97 1012.80 1012.63 1012.50 1012.41 1012.38 1012.38 1012.40 1012.39 1012.31 1012.12 1011.81 1011.38 1010.86 1010.28 1009.70
1013.45 1013.87 1014.26 1014.53 1014.64 1014.60 1014.44 1014.22 1013.99 1013.81 1013.71 1013.68 1013.71 1013.77 1013.81 1013.82 1013.79 1013.71 1013.61 1013.50 1013.40 1013.31 1013.23 1013.15 1013.05 1012.92 1012.76 1012.56 1012.35 1012.15 1012.00 1011.89 1011.86 1011.87 1011.90 1011.92 1011.89 1011.76 1011.52 1011.17 1010.72 1010.22 1009.70
1013.67 1014.12 1014.52 1014.80 1014.92 1014.89 1014.72 1014.48 1014.23 1014.00 1013.84 1013.75 1013.71 1013.70 1013.70 1013.68 1013.63 1013.54 1013.44 1013.33 1013.22 1013.11 1013.01 1012.89 1012.75 1012.57 1012.36 1012.12 1011.87 1011.64 1011.45 1011.33 1011.28 1011.29 1011.33 1011.37 1011.38 1011.31 1011.15 1010.88 1010.53 1010.12 1009.69
1013.90 1014.35 1014.73 1015.00 1015.11 1015.07 1014.91 1014.66 1014.39 1014.15 1013.95 1013.81 1013.73 1013.67 1013.63 1013.57 1013.49 1013.39 1013.27 1013.15 1013.01 1012.88 1012.74 1012.58 1012.39 1012.17 1011.91 1011.64 1011.35 1011.10 1010.89 1010.74 1010.67 1010.67 1010.72 1010.78 1010.82 1010.80 1010.71 1010.54 1010.30 1009.99 1009.66
1014.11 1014.51 1014.86 1015.09 1015.17 1015.12 1014.95 1014.71 1014.45 1014.21 1014.00 1013.85 1013.73 1013.64 1013.56 1013.47 1013.36 1013.22 1013.07 1012.91 1012.75 1012.58 1012.40 1012.20 1011.98 1011.72 1011.44 1011.13 1010.83 1010.55 1010.32 1010.16 1010.07 1010.06 1010.10 1010.17 1010.24 1010.28 1010.26 1010.18 1010.03 1009.83 1009.60
1014.24 1014.59 1014.86 1015.04 1015.08 1015.01 1014.85 1014.63 1014.39 1014.17 1013.98 1013.82 1013.69 1013.58 1013.46 1013.33 1013.18 1013.00 1012.81 1012.61 1012.41 1012.20 1011.99 1011.76 1011.51 1011.23 1010.93 1010.62 1010.30 1010.02 1009.77 1009.60 1009.50 1009.47 1009.50 1009.57 1009.66 1009.74 1009.79 1009.78 1009.73 1009.63 1009.50
1014.28 1014.55 1014.75 1014.85 1014.86 1014.77 1014.61 1014.42 1014.22 1014.04 1013.87 1013.73 1013.60 1013.46 1013.31 1013.14 1012.94 1012.71 1012.48 1012.23 1011.98 1011.74 1011.50 1011.25 1010.99 1010.71 1010.41 1010.11 1009.80 1009.51 1009.27 1009.08 1008.96 1008.91 1008.93 1009.00 1009.10 1009.20 1009.29 1009.36 1009.39 1009.37 1009.33
1014.24 1014.42 1014.53 1014.56 1014.52 1014.42 1014.28 1014.13 1013.97 1013.83 1013.70 1013.58 1013.45 1013.29 1013.11 1012.89 1012.63 1012.35 1012.06 1011.77 1011.48 1011.21 1010.95 1010.70 1010.44 1010.17 1009.89 1009.60 1009.31 1009.04 1008.79 1008.59 1008.45 1008.38 1008.38 1008.43 1008.52 1008.64 1008.77 1008.89 1008.98 1009.04 1009.07
1014.09 1014.19 1014.22 1014.20 1014.13 1014.03 1013.91 1013.80 1013.69 1013.60 1013.50 1013.39 1013.26 1013.08 1012.86 1012.59 1012.28 1011.94 1011.59 1011.25 1010.92 1010.63 1010.36 1010.11 1009.87 1009.62 1009.37 1009.11 1008.84 1008.57 1008.32 1008.11 1007.95 1007.85 1007.81 1007.84 1007.92 1008.04 1008.19 1008.35 1008.50 1008.62 1008.72
1013.86 1013.89 1013.87 1013.80 1013.72 1013.62 1013.54 1013.47 1013.41 1013.36 1013.30 1013.20 1013.06 1012.85 1012.59 1012.26 1011.89 1011.49 1011.09 1010.70 1010.34 1010.03 1009.75 1009.51 1009.28 1009.06 1008.84 1008.60 1008.35 1008.09 1007.84 1007.61 1007.42 1007.28 1007.21 1007.20 1007.27 1007.38 1007.55 1007.74 1007.94 1008.12 1008.28
1013.55 1013.53 1013.48 1013.40 1013.32 1013.25 1013.20 1013.18 1013.17 1013.15 1013.10 1013.01 1012.85 1012.62 1012.31 1011.92 1011.49 1011.04 1010.58 1010.15 1009.77 1009.43 1009.15 1008.91 1008.70 1008.50 1008.29 1008.07 1007.83 1007.58 1007.31 1007.06 1006.84 1006.67 1006.55 1006.52 1006.56 1006.68 1006.85 1007.08 1007.33 1007.57 1007.80
1013.16 1013.13 1013.07 1013.00 1012.95 1012.91 1012.91 1012.92 1012.94 1012.95 1012.92 1012.82 1012.64 1012.37 1012.02 1011.58 1011.10 1010.59 1010.09 1009.63 1009.21 1008.86 1008.56 1008.32 1008.12 1007.93 1007.73 1007.52 1007.28 1007.02 1006.74 1006.47 1006.22 1006.01 1005.87 1005.80 1005.83 1005.94 1006.14 1006.40 1006.69 1007.01 1007.31
1012.70 1012.69 1012.66 1012.62 1012.60 1012.60 1012.64 1012.68 1012.73 1012.75 1012.71 1012.60 1012.40 1012.10 1011.70 1011.23 1010.70 1010.16 1009.62 1009.12 1008.68 1008.31 1008.00 1007.75 1007.54 1007.35 1007.16 1006.95 1006.71 1006.44 1006.15 1005.86 1005.58 1005.34 1005.18 1005.09 1005.11 1005.22 1005.44 1005.73 1006.08 1006.46 1006.83
1012.20 1012.23 1012.23 1012.24 1012.26 1012.30 1012.37 1012.44 1012.49 1012.51 1012.46 1012.33 1012.10 1011.77 1011.34 1010.84 1010.28 1009.71 1009.15 1008.63 1008.17 1007.78 1007.46 1007.20 1006.99 1006.79 1006.59 1006.38 1006.14 1005.86 1005.57 1005.26 1004.97 1004.73 1004.54 1004.45 1004.46 1004.58 1004.81 1005.14 1005.53 1005.96 1006.39
1011.67 1011.75 1011.81 1011.87 1011.93 1012.00 1012.08 1012.15 1012.20 1012.21 1012.14 1011.98 1011.72 1011.36 1010.91 1010.39 1009.82 1009.24 1008.67 1008.14 1007.68 1007.28 1006.95 1006.68 1006.45 1006.25 1006.05 1005.84 1005.60 1005.33 1005.04 1004.74 1004.45 1004.20 1004.02 1003.92 1003.93 1004.06 1004.30 1004.64 1005.05 1005.52 1005.99
1011.15 1011.29 1011.40 1011.50 1011.59 1011.68 1011.76 1011.83 1011.86 1011.83 1011.73 1011.54 1011.26 1010.88 1010.42 1009.89 1009.32 1008.74 1008.18 1007.66 1007.19 1006.79 1006.45 1006.18 1005.96 1005.76 1005.56 1005.36 1005.14 1004.89 1004.61 1004.33 1004.06 1003.82 1003.64 1003.55 1003.56 1003.67 1003.91 1004.25 1004.67 1005.13 1005.62
1010.65 1010.84 1011.00 1011.13 1011.25 1011.34 1011.42 1011.46 1011.46 1011.40 1011.26 1011.04 1010.73 1010.34 1009.88 1009.35 1008.80 1008.23 1007.69 1007.17 1006.72 1006.32 1005.99 1005.73 1005.51 1005.31 1005.14 1004.95 1004.76 1004.54 1004.30 1004.05 1003.80 1003.59 1003.43 1003.33 1003.34 1003.44 1003.66 1003.97 1004.36 1004.80 1005.27
1010.19 1010.43 1010.63 1010.78 1010.91 1011.00 1011.06 1011.08 1011.04 1010.94 1010.77 1010.52 1010.20 1009.80 1009.33 1008.82 1008.28 1007.74 1007.21 1006.72 1006.28 1005.89 1005.57 1005.32 1005.11 1004.93 1004.78 1004.62 1004.46 1004.28 1004.09 1003.88 1003.68 1003.49 1003.35 1003.26 1003.25 1003.33 1003.51 1003.77 1004.11 1004.50 1004.92
Thickness
5732 5733 5733 5732 5731 5730 5729 5727 5725 5723 5721 5717 5713 5709 5707 5706 5706 5705 5704 5703 5701 5699 5697 5695 5694 5693 5692 5692 5692 5692 5692 5693 5695 5695 5698 5702 5705 5707 5708 5709 5711 5714 5716
5726 5727 5727 5726 5726 5725 5724 5722 5720 5718 5716 5713 5710 5706 5703 5700 5699 5697 5696 5694 5693 5691 5689 5688 5687 5686 5684 5684 5684 5684 5684 5686 5688 5687 5688 5690 5696 5702 5707 5708 5709 5712 5713
5722 5722 5722 5722 5722 5721 5720 5720 5717 5714 5711 5708 5704 5700 5696 5692 5690 5688 5687 5686 5684 5683 5681 5680 5679 5678 5677 5675 5675 5676 5676 5677 5679 5681 5681 5681 5685 5692 5699 5703 5706 5707 5709
5720 5720 5720 5719 5718 5718 5717 5715 5712 5708 5705 5701 5697 5693 5688 5684 5682 5680 5678 5677 5676 5674 5673 5672 5671 5670 5669 5668 5668 5668 5668 5669 5670 5673 5676 5677 5680 5680 5686 5694 5699 5702 5704
5718 5718 5718 5717 5716 5715 5712 5710 5706 5702 5699 5695 5691 5687 5682 5678 5675 5672 5670 5668 5667 5665 5664 5664 5662 5661 5660 5660 5659 5659 5659 5660 5662 5663 5666 5669 5672 5675 5676 5682 5689 5694 5699
5718 5718 5717 5715 5713 5711 5709 5705 5701 5697 5693 5690 5685 5680 5676 5671 5667 5664 5662 5659 5657 5656 5656 5654 5653 5652 5652 5651 5651 5651 5651 5652 5653 5655 5657 5660 5663 5666 5669 5674 5679 5684 5691
5718 5716 5714 5711 5709 5707 5704 5701 5696 5691 5687 5683 5679 5674 5669 5665 5660 5657 5654 5651 5649 5647 5646 5645 5644 5643 5643 5643 5643 5642 5642 5643 5644 5646 5648 5651 5655 5659 5662 5666 5671 5675 5682
5716 5714 5712 5709 5706 5704 5700 5695 5690 5685 5681 5676 5671 5667 5662 5657 5653 5650 5646 5643 5641 5640 5638 5637 5636 5635 5634 5634 5634 5633 5634 5634 5635 5637 5639 5642 5646 5650 5654 5657 5661 5666 5672
5716 5713 5710 5707 5703 5699 5694 5690 5684 5679 5674 5669 5664 5660 5655 5650 5646 5642 5639 5636 5634 5632 5631 5629 5628 5627 5626 5625 5625 5624 5625 5625 5627 5628 5630 5633 5637 5641 5645 5649 5653 5657 5662
5713 5710 5706 5702 5698 5693 5688 5683 5678 5672 5667 5662 5657 5653 5647 5643 5638 5634 5631 5628 5626 5624 5622 5620 5619 5618 5617 5616 5615 5615 5616 5616 5617 5619 5621 5624 5628 5631 5635 5640 5644 5649 5654
5709 5704 5700 5696 5691 5687 5681 5676 5671 5665 5660 5655 5649 5644 5640 5635 5631 5626 5623 5620 5618 5615 5613 5611 5610 5608 5607 5607 5606 5605 5606 5606 5608 5609 5612 5615 5618 5621 5625 5630 5635 5640 5645
5704 5699 5694 5689 5685 5680 5675 5670 5664 5659 5654 5648 5643 5637 5632 5627 5623 5619 5616 5613 5610 5607 5605 5602 5600 5599 5598 5597 5596 5595 5596 5596 5598 5600 5602 5605 5608 5611 5615 5620 5625 5630 5636
5698 5693 5688 5684 5679 5674 5668 5663 5658 5653 5648 5642 5636 5631 5625 5621 5616 5613 5609 5606 5603 5600 5597 5594 5591 5589 5588 5586 5586 5585 5585 5586 5587 5589 5591 5595 5597 5601 5605 5609 5614 5620 5626
5694 5688 5682 5678 5673 5667 5662 5657 5652 5647 5642 5636 5630 5624 5619 5615 5610 5607 5603 5599 5596 5592 5589 5586 5583 5580 5578 5576 5575 5575 5575 5576 5577 5578 5581 5584 5587 5591 5595 5600 5605 5610 5615
5690 5685 5679 5673 5667 5662 5657 5652 5647 5642 5636 5630 5624 5619 5614 5610 5605 5601 5597 5593 5589 5586 5582 5578 5574 5571 5569 5568 5567 5565 5565 5565 5566 5568 5570 5573 5577 5581 5585 5590 5595 5600 5605
5687 5682 5676 5670 5664 5659 5653 5648 5643 5637 5631 5625 5620 5615 5609 5605 5600 5596 5591 5587 5583 5579 5574 5570 5567 5563 5562 5561 5558 5556 5555 5555 5555 5557 5559 5561 5565 5571 5575 5580 5586 5590 5595
5684 5678 5673 5667 5661 5656 5650 5644 5639 5633 5626 5620 5615 5610 5605 5599 5595 5590 5585 5581 5576 5572 5567 5563 5560 5557 5555 5552 5549 5547 5545 5545 5544 5545 5547 5551 5556 5559 5563 5569 5574 5580 5586
5682 5677 5671 5665 5659 5653 5646 5640 5634 5628 5622 5616 5610 5605 5600 5594 5589 5584 5579 5575 5570 5565 5561 5558 5554 5551 5549 5545 5542 5539 5537 5536 5535 5535 5536 5538 5542 5546 5550 5555 5562 5568 5575
5682 5676 5670 5663 5656 5649 5643 5636 5630 5623 5617 5612 5606 5601 5595 5589 5584 5579 5574 5569 5564 5560 5555 5552 5548 5545 5542 5538 5534 5531 5528 5527 5526 5526 5527 5528 5531 5534 5537 5543 5549 5555 5562
5680 5673 5667 5660 5652 5646 5639 5631 5625 5618 5613 5608 5602 5596 5590 5584 5579 5574 5569 5564 5558 5554 5550 5546 5542 5538 5535 5531 5527 5523 5520 5518 5518 5517 5518 5519 5521 5523 5526 5531 5537 5544 5551
5678 5672 5664 5656 5649 5642 5634 5627 5621 5615 5610 5604 5597 5591 5585 5579 5574 5569 5564 5558 5553 5549 5545 5541 5537 5532 5527 5523 5519 5515 5512 5510 5510 5509 5510 5511 5512 5513 5516 5520 5527 5534 5539
5675 5668 5659 5652 5645 5638 5630 5624 5617 5613 5606 5599 5593 5587 5581 5575 5572 5565 5559 5554 5549 5544 5540 5535 5531 5526 5521 5516 5512 5508 5505 5503 5502 5503 5503 5503 5504 5505 5508 5511 5517 5521 5526
5671 5664 5655 5648 5642 5635 5628 5621 5615 5609 5601 5595 5589 5583 5577 5571 5566 5560 5555 5551 5545 5540 5535 5529 5525 5521 5516 5511 5507 5503 5500 5498 5497 5497 5497 5496 5497 5498 5500 5504 5508 5512 5518
5667 5659 5651 5644 5638 5632 5625 5618 5612 5604 5597 5590 5584 5579 5573 5568 5563 5557 5552 5546 5542 5537 5531 5526 5521 5516 5512 5508 5504 5500 5496 5494 5493 5492 5492 5491 5491 5492 5495 5498 5502 5507 5513
5662 5654 5647 5641 5635 5629 5622 5615 5608 5600 5592 5586 5580 5575 5569 5564 5559 5555 5549 5544 5540 5533 5528 5523 5517 5513 5510 5506 5500 5495 5493 5491 5489 5488 5488 5488 5488 5489 5491 5494 5498 5503 5507
5657 5650 5643 5637 5632 5625 5618 5612 5604 5596 5588 5582 5577 5571 5566 5561 5556 5552 5548 5544 5538 5533 5527 5521 5515 5512 5507 5503 5499 5495 5492 5490 5487 5486 5488 5488 5488 5490 5491 5494 5497 5501 5505